COSMOS 829

Satellite information

Favourite Embed

Satellite Type and Status

PAYLOADIN ORBIT

Key statistics

Satellite COSMOS 829 at a glance.

Uptime

18084

Days in orbit

Revolutions

≈ 12.5

Per day

Orbit

LEO

Low Earth Orbit

Inclination

74.0

Latest

Satellite identification and parameters

Extended collection of information and parameters for COSMOS 829.

Object identification

Identified? True

Debris? False

Object name: COSMOS 829

International designator: 1976-054E

Object number (NORAD): 8893

Object ID (CCSDS): 8893

Country: COMMONWEALTH OF INDEPENDENT STATES (CIS)

Current information (Y/N): Y

RCS size: MEDIUM

Orbital parameters

Period: 115.322 minutes

Inclination: 73.999 deg

SMA: 7848.17 km

Apoapsis: 1489.742 km

Periapsis: 1450.327 km

RAAN: 223.857 deg

Eccentricy: 0.00251107

Argument of periapsis: 83.2151 deg

Mean anomaly: 352.8946 deg

Mean motion: 12.48677204 rev/day

Mean motion (dot): 0.00000012 rev/day2

B* drag term: 0.00018497561 1/REarth

Two-line elements (TLE)

Creation date: Dec. 19, 2025, 2:08 a.m.

Reference frame: TEME

Reference center: EARTH

Epoch: Dec. 18, 2025, 8:03 p.m. UTC

TLE line 0: 0 COSMOS 829

TLE line 1: 1 08893U 76054E 25352.83578957 .00000012 00000-0 18498-3 0 9995

TLE line 2: 2 08893 73.9990 223.8570 0025111 83.2151 352.8946 12.48677204256779

Live tracking on map

Real-time ground track for satellite COSMOS 829.

In-orbit conjunctions

A list of the most updated potential collisions computed for object COSMOS 829.

Target Orbit TCA Probability of collision Miss distance Type
THORAD DELTA 1 DEB SSO 2025-11-22 21:49:55 0.0002806878 184.0 (m) DEBRIS
FENGYUN 1C DEB SSO 2025-06-27 16:19:04 0.0003667056 181.0 (m) DEBRIS

Associated space launch

Military communications satellites

COSMOS 829 was lifted into orbit during the mission ‘Kosmos-3M | Strela-1M 113-120’, on board a Kosmos-3M space rocket.

The launch took place on June 15, 1976, 1:19 p.m. from 132/2.

For more information about the launch, click the button.

Launch to space Kosmos-3M | Strela-1M 113-120
Kosmos-3M | Strela-1M 113-120

Agency: N/A

Status: Launch Successful

Launch date: June 15, 1976, 1:19 p.m. UTC

Rocket: Kosmos-3M

Launch pad: 132/2

Location: Plesetsk Cosmodrome, Russian Federation

...

Latest news about this satellite

There are no fresh news available about this satellite. Check back as we update our databases every day.


Newsletter sign-up

Weekly statistics, charts and insights to help you stay on top of the space industry.